Regional Weather Roundup
Issued by NWS

Home | Current Version | Previous Version | Text Only | Print | Product List | Glossary Off
Versions: 1 2 3 4 5 6 7 8 9 10 11 12 13 14 15 16 17 18 19 20 21 22 23 24 25 26 27 28 29 30 31 32 33 34 35 36 37 38 39 40 41 42 43 44 45 46 47 48 49 50

000
ASUS43 KDMX 272107
RWRIA

WEATHER ROUNDUP FOR IOWA
NATIONAL WEATHER SERVICE DES MOINES IA
300 PM CST TUE JAN 27 2015

NOTE: "FAIR" INDICATES FEW OR NO CLOUDS BELOW 12,000 FEET WITH NO
SIGNIFICANT WEATHER AND/OR OBSTRUCTIONS TO VISIBILITY.

* - THESE STATIONS ARE NOT NWS STATIONS...THUS NOT UNDER NWS
QUALITY CONTROL.  THEY ALSO DO NOT REPORT WEATHER SUCH
AS PRECIPITATION OR FOG.

IAZ001>003-012>014-020>022-031>034-043>046-272200-
   NORTHWEST IOWA

CITY           SKY/WX    TMP DP  RH WIND       PRES   REMARKS
CARROLL *      SUNNY     46  34  61 S12       30.08F
CHEROKEE *     SUNNY     45  37  76 SE10      30.07F
DENISON *      SUNNY     48  34  57 SE10      30.05F
LE MARS *      SUNNY     46  37  71 VRB6G14   30.05S
ORANGE CITY *  SUNNY     45  36  70 SE10G16   30.04F
SHELDON *      SUNNY     43  37  81 SE15      30.04F
SIOUX CITY     SUNNY     49  35  58 SE14      30.04F
SPENCER        MOSUNNY   42  34  73 SE13      30.08S
STORM LAKE *   SUNNY     43  37  81 S13       30.08S
$$

IAZ055>058-069>071-079>083-090>094-272200-
   SOUTHWEST IOWA

CITY           SKY/WX    TMP DP  RH WIND       PRES   REMARKS
ATLANTIC *     SUNNY     50  32  50 SE8       30.08S
AUDUBON *      SUNNY     48  36  61 SE10G16   30.09F
CLARINDA *     SUNNY     54  32  43 VRB6G12   30.09F
COUNCIL BLFS * SUNNY     52  34  50 SE12      30.04F
CRESTON *      SUNNY     48  32  53 SE9       30.11R
HARLAN  *      SUNNY     50  34  53 SE10      30.10F
LAMONI         SUNNY     49  31  49 VRB7      30.11S
RED OAK *      SUNNY     52  32  46 SE9       30.07F
SHENANDOAH *   SUNNY     54  32  43 SE10      30.07F
$$

IAZ047>049-059>061-072>074-084-272200-
   CENTRAL IOWA

CITY           SKY/WX    TMP DP  RH WIND       PRES   REMARKS
AMES           SUNNY     43  32  65 SE8       30.13S
ANKENY *       SUNNY     45  32  61 SE7       30.13S
CHARITON *     SUNNY     46  30  53 SE6       30.13S
DES MOINES     MOSUNNY   46  30  53 E7        30.13F
GRINNELL*      CLOUDY    36  30  80 E3        30.16F
KNOXVILLE *    SUNNY     43  30  61 E8        30.13S
MARSHALLTOWN   CLOUDY    36  30  79 E12       30.15R WCI  28
PELLA *        MOSUNNY   41  32  70 SE7       30.16S
PERRY *          N/A     45  34  65 S8        30.11S
$$

IAZ004>006-015-016-023>025-035-036-272200-
   NORTH CENTRAL IOWA

CITY           SKY/WX    TMP DP  RH WIND       PRES   REMARKS
ALGONA *       PTSUNNY   39  36  87 SE9       30.12S WCI  33
CLARION *      PTSUNNY   39  36  87 SE10      30.14R WCI  32
ESTHERVILLE    CLOUDY    37  33  85 SE13      30.10R WCI  29
FORT DODGE *   SUNNY     43  34  70 SE7       30.12R
MASON CITY     CLOUDY    34  29  82 SE7       30.16R WCI  28
FOREST CITY *  CLOUDY    36  28  75 SE10      30.14R WCI  28
IOWA FALLS *   CLOUDY    37  30  75 E8        30.16R WCI  31
$$

IAZ007>011-017>019-026>030-037>042-050>054-066-272200-
   NORTHEAST IOWA

CITY           SKY/WX    TMP DP  RH WIND       PRES   REMARKS
CEDAR RAPIDS   CLOUDY    31  25  78 E5        30.18R WCI  26
CHARLES CITY * CLOUDY    32  30  93 SE5       30.18R WCI  27
CLINTON *      CLOUDY    27  19  74 CALM      30.24R
DECORAH *      CLOUDY    30  23  74 CALM      30.17R
DUBUQUE        CLOUDY    27  21  78 NE7       30.19R WCI  19
MONTICELLO *   CLOUDY    30  25  80 NE3       30.20R
OELWEIN *      CLOUDY    30  25  80 CALM      30.19R
WATERLOO       CLOUDY    32  27  81 E5        30.18R WCI  27
$$

IAZ064-065-067-068-078-272200-
   EAST CENTRAL IOWA

CITY           SKY/WX    TMP DP  RH WIND       PRES   REMARKS
DAVENPORT      CLOUDY    28  21  75 E6        30.21R WCI  22
IOWA CITY      CLOUDY    32  25  75 E5        30.22R WCI  27
MT. PLEASANT * CLOUDY    32  28  86 NE6       30.20R WCI  26
MUSCATINE *    CLOUDY    32  25  74 E6        30.22R WCI  26
QUAD CITIES    CLOUDY    30  22  72 E5        30.20S WCI  25
$$

IAZ062-063-075>077-085>089-095>099-272200-
   SOUTHEAST IOWA

CITY           SKY/WX    TMP DP  RH WIND       PRES   REMARKS
BURLINGTON     CLOUDY    32  26  78 NE7       30.20R WCI  26
FAIRFIELD *    CLOUDY    36  28  75 NE7       30.19R WCI  30
FORT MADISON * CLOUDY    34  28  80 E5        30.20R WCI  30
KEOKUK *       CLOUDY    36  30  80 NE7       30.18R WCI  30
OSKALOOSA *    CLOUDY    37  30  75 E5        30.17F WCI  34
CENTERVILLE *    N/A     45  32  61 NE3       30.14F
OTTUMWA        PTSUNNY   38  29  70 NE8       30.15S WCI  32
WASHINGTON *   CLOUDY    34  30  86 E6        30.19S WCI  29
$$

ABBREVIATIONS USED IN REMARKS
   TC - TEMPERATURES IN CELSIUS
  WCI - WIND CHILL INDEX
   HX - HEAT INDEX
  VSB - VISIBILITY
$$




USA.gov is the U.S. government's official web portal to all federal, state and local government web resources and services.